Flag for Finland Weather past 2 weeks in Oulu, Finland

37 °F

Passing clouds.

Feels Like: 28 °F
Forecast: 36 / 44 °F
Wind: 16 mph from Southwest

Location: Oulu Airport

Current Time: Nov 26, 2015 at 9:37:53 PM

Latest Report: Nov 26, 2015 at 8:50 PM

Visibility: N/A

Pressure: 29.30 "Hg

Humidity: 81%

Dew point: 32 °F

Location of OuluLocation

Historic Weather in Oulu — Graph


Oulu temperature yesterday

Maximum temperature yesterday: 37 °F (at 6:20 PM)
Minimum temperature yesterday: 32 °F (at 12:20 AM)
Average temperature yesterday: 36 °F

Past Weeks' High & Low Weather Summary

High41 °F (Nov 14, 9:20 AM)100% (Nov 11, 8:20 PM)29.89 "Hg (Nov 11, 8:20 PM)
Low19 °F (Nov 22, 4:50 PM)80% (Nov 21, 5:50 PM)29.24 "Hg (Nov 21, 3:50 AM)
Average32 °F94%29.51 "Hg
* Reported Nov 11 8:20 PM — Nov 26 8:20 PM, Oulu, Weather by CustomWeather, © 2015

Note: Actual official high and low records may vary slightly from our data, if they occured in-between our weather recording intervals... More about our weather records


Oulu weather history for previous 24 hours

Time TempWeatherWind HumidityBarometerVisibility
8:20 PM
Thu, Nov 26
36 °FPassing clouds.17 mph87%29.30 "HgN/A
7:50 PM37 °FPassing clouds.15 mph81%29.33 "HgN/A
7:20 PM37 °FPassing clouds.16 mph81%29.36 "HgN/A
6:50 PM37 °FOvercast.16 mph81%29.36 "HgN/A
6:20 PM37 °FMostly cloudy.15 mph81%29.39 "HgN/A
5:50 PM37 °FMostly cloudy.15 mph81%29.39 "HgN/A
5:20 PM37 °FMostly cloudy.15 mph81%29.42 "HgN/A
4:50 PM37 °FOvercast.17 mph81%29.42 "HgN/A
4:20 PM37 °FPassing clouds.13 mph81%29.42 "HgN/A
3:50 PM37 °FPartly cloudy.13 mph81%29.42 "HgN/A
3:20 PM37 °FPassing clouds.13 mph87%29.42 "HgN/A
2:50 PM37 °FOvercast.13 mph87%29.45 "HgN/A
2:20 PM37 °FMostly cloudy.13 mph87%29.45 "HgN/A
1:50 PM37 °FOvercast.13 mph87%29.45 "HgN/A
1:20 PM37 °FOvercast.10 mph87%29.45 "HgN/A
12:50 PM37 °FMostly cloudy.12 mph87%29.45 "HgN/A
12:20 PM39 °FMostly cloudy.12 mph87%29.45 "HgN/A
11:50 AM37 °FOvercast.13 mph87%29.45 "HgN/A
11:20 AM37 °FMostly cloudy.13 mph87%29.45 "HgN/A
10:50 AM37 °FOvercast.13 mph87%29.45 "HgN/A
10:20 AM37 °FOvercast.14 mph87%29.45 "HgN/A
9:50 AM37 °FLight rain. Overcast.14 mph87%29.45 "HgN/A
9:20 AM37 °FOvercast.15 mph87%29.45 "HgN/A
8:20 AM37 °FOvercast.13 mph87%29.42 "HgN/A
7:50 AM37 °FMostly cloudy.13 mph93%29.42 "HgN/A
7:20 AM37 °FMostly cloudy.10 mph93%29.42 "HgN/A
6:50 AM37 °FMostly cloudy.10 mph93%29.42 "HgN/A
6:20 AM37 °FOvercast.9 mph93%29.42 "HgN/A
5:50 AM37 °FMostly cloudy.10 mph93%29.42 "HgN/A
5:20 AM37 °FOvercast.10 mph93%29.42 "HgN/A
4:50 AM37 °FMostly cloudy.10 mph93%29.42 "HgN/A
4:20 AM37 °FLight rain. Overcast.10 mph93%29.42 "HgN/A
3:50 AM37 °FOvercast.10 mph93%29.42 "HgN/A
3:20 AM37 °FLow clouds.10 mph93%29.42 "HgN/A
2:20 AM37 °FLight rain. Mostly cloudy.9 mph93%29.42 "HgN/A
1:50 AM37 °FLight rain. Mostly cloudy.12 mph93%29.42 "HgN/A
1:20 AM37 °FLight rain. Mostly cloudy.12 mph100%29.42 "HgN/A
12:50 AM37 °FDrizzle. Mostly cloudy.9 mph100%29.42 "Hg5 mi
12:20 AM37 °FLight rain. Low clouds.9 mph93%29.42 "Hg4 mi
11:50 PM
Wed, Nov 25
37 °FLight rain. Low clouds.8 mph93%29.42 "HgN/A
11:20 PM37 °FLow clouds.9 mph100%29.39 "HgN/A
10:50 PM37 °FLow clouds.9 mph93%29.39 "HgN/A
10:20 PM37 °FLow clouds.12 mph93%29.39 "HgN/A
9:50 PM37 °FLow clouds.12 mph93%29.39 "HgN/A
9:20 PM37 °FLow clouds.10 mph93%29.39 "HgN/A
Weather by CustomWeather, © 2015

See weather overviewHow to use our weather pages